Weather History for KSDF - January, 2013

Change the Weather History Date:

Sunday, January 13, 2013

  Actual Average Record
Temperature  
Mean Temperature 51 °F 35 °F  
Max Temperature 69 °F 43 °F 70 °F (1960)
Min Temperature 33 °F 27 °F -6 °F (1895)
Degree Days  
Heating Degree Days 14 30  
Month to date heating degree days 296 390  
Since 1 July heating degree days 1787 1966  
Cooling Degree Days 0 0  
Month to date cooling degree days 0 0  
Year to date cooling degree days 0 0  
Moisture  
Dew Point 51 °F    
Average Humidity 85    
Maximum Humidity 100    
Minimum Humidity 70    
Precipitation  
Precipitation 2.72 in 0.11 in 2.72 in (2013)
Month to date precipitation 3.68 1.38  
Year to date precipitation 3.68 1.38  
Snow  
Snow 0.00 in 0.10 in 8.60 in (1917)
Month to date snowfall T 1.4  
Since 1 July snowfall 2.7 4.2  
Snow Depth 0.00 in    
Sea Level Pressure  
Sea Level Pressure 29.92 in    
Wind  
Wind Speed 12 mph (WSW)    
Max Wind Speed 30 mph    
Max Gust Speed 41 mph    
Visibility 6 miles    
Events Rain    
T = Trace of Precipitation, MM = Missing Value Source: NWS Daily Summary

Daily Weather History Graph

Daily Weather History Graph

Search for Another Location

Airport or City:

Trip Planner

Search our weather history database for the weather conditions in past years. The results will help you decide how hot, cold, wet, or windy it might be!

Date:

Astronomy

Jan. 13, 2013 Rise Set
Actual Time 7:58 AM EST 5:45 PM EST
Civil Twilight 7:29 AM EST 6:14 PM EST
Nautical Twilight 6:57 AM EST 6:46 PM EST
Astronomical Twilight 6:25 AM EST 7:18 PM EST
Moon 8:59 AM EST (1/13) 8:19 PM EST (1/13)
Length of Visible Light 10h 44m
Length of Day
9h 46m
Waxing Crescent, 5% of the Moon is Illuminated
Jan 13
Waxing Crescent
Jan 18
First Quarter
Jan 26
Full
Feb 3
Last Quarter
Feb 10
New

Hourly Weather History & Observations

Time (EST) Temp. Windchill Dew Point Humidity Pressure Visibility Wind Dir Wind Speed Gust Speed Precip Events Conditions
12:56 AM 69.1 °F - 59.0 °F 70% 29.75 in 10.0 mi South 24.2 mph 31.1 mph N/A   Overcast
1:56 AM 69.1 °F - 59.0 °F 70% 29.75 in 10.0 mi South 19.6 mph 36.8 mph 0.00 in   Mostly Cloudy
2:56 AM 64.9 °F - 59.0 °F 81% 29.83 in 2.0 mi West 32.2 mph 41.4 mph 0.00 in Rain Light Rain
2:59 AM 62.6 °F - 57.2 °F 82% 29.84 in 2.0 mi West 25.3 mph 41.4 mph 0.00 in Rain Heavy Rain
3:02 AM 60.8 °F - 57.2 °F 88% 29.84 in 3.0 mi West 20.7 mph 41.4 mph 0.10 in Rain Heavy Rain
3:26 AM 60.8 °F - 59.0 °F 94% 29.85 in 2.5 mi West 11.5 mph - 0.30 in Rain Heavy Rain
3:56 AM 60.1 °F - 59.0 °F 96% 29.85 in 3.0 mi SSW 8.1 mph - 0.59 in Rain Heavy Rain
4:18 AM 60.8 °F - 59.0 °F 94% 29.85 in 2.0 mi South 6.9 mph - 0.09 in Rain Heavy Rain
4:50 AM 60.8 °F - 59.0 °F 94% 29.84 in 3.0 mi SSE 5.8 mph - 0.40 in Rain Heavy Rain
4:56 AM 60.8 °F - 59.0 °F 94% 29.87 in 4.0 mi SW 6.9 mph - N/A Rain Rain
5:00 AM 60.8 °F - 59.0 °F 94% 29.85 in 1.8 mi Calm Calm - 0.01 in Rain Heavy Rain
5:06 AM 60.8 °F - 59.0 °F 94% 29.87 in 1.2 mi SW 4.6 mph - 0.11 in Rain Heavy Rain
5:20 AM 60.8 °F - 59.0 °F 94% 29.86 in 2.0 mi South 6.9 mph - 0.29 in Rain Heavy Rain
5:28 AM 60.8 °F - 59.0 °F 94% 29.85 in 3.0 mi South 4.6 mph - 0.34 in Rain Rain
5:56 AM 60.1 °F - 59.0 °F 96% 29.85 in 10.0 mi SSE 4.6 mph - 0.36 in Rain Light Rain
6:56 AM 60.1 °F - 59.0 °F 96% 29.90 in 7.0 mi South 11.5 mph - 0.09 in Rain Light Rain
7:56 AM 59.0 °F - 57.9 °F 96% 29.91 in 9.0 mi SSE 11.5 mph - 0.06 in Rain Light Rain
8:56 AM 59.0 °F - 57.9 °F 96% 29.88 in 9.0 mi SSE 16.1 mph 23.0 mph 0.06 in Rain Light Rain
9:41 AM 59.0 °F - 57.2 °F 94% 29.90 in 10.0 mi SSE 6.9 mph - 0.01 in Rain Light Rain
9:56 AM 60.8 °F - 57.2 °F 88% 29.91 in 8.0 mi South 5.8 mph - N/A Rain Light Rain
10:56 AM 59.0 °F - 57.9 °F 96% 29.90 in 5.0 mi SSE 11.5 mph - 0.09 in Rain Rain
11:56 AM 59.0 °F - 57.0 °F 93% 29.86 in 9.0 mi SSE 15.0 mph - 0.06 in Rain Light Rain
12:47 PM 60.8 °F - 57.2 °F 88% 29.86 in 3.0 mi South 4.6 mph - 0.10 in Rain Heavy Rain
12:56 PM 60.1 °F - 57.9 °F 93% 29.86 in 3.0 mi SSW 8.1 mph - 0.13 in Rain Rain
1:08 PM 60.8 °F - 57.2 °F 88% 29.86 in 2.5 mi SSW 9.2 mph - 0.05 in Rain Heavy Rain
1:35 PM 60.8 °F - 59.0 °F 94% 29.87 in 3.0 mi South 6.9 mph - 0.18 in Rain Heavy Rain
1:42 PM 60.8 °F - 59.0 °F 94% 29.86 in 2.5 mi SSE 6.9 mph - 0.22 in Rain Heavy Rain
1:56 PM 60.1 °F - 59.0 °F 96% 29.84 in 2.5 mi South 3.5 mph - 0.29 in Rain Heavy Rain
2:12 PM 60.8 °F - 59.0 °F 94% 29.83 in 4.0 mi ESE 3.5 mph - 0.06 in Rain Rain
2:24 PM 60.8 °F - 59.0 °F 94% 29.83 in 6.0 mi SE 4.6 mph - 0.08 in Rain Light Rain
2:46 PM 55.4 °F - 55.4 °F 100% 29.85 in 8.0 mi WNW 6.9 mph - 0.09 in Rain Light Rain
2:56 PM 55.0 °F - 54.0 °F 96% 29.85 in 7.0 mi WNW 5.8 mph - 0.09 in Rain Light Rain
3:13 PM 53.6 °F - 53.6 °F 100% 29.85 in 3.0 mi NNW 8.1 mph - 0.01 in Rain Rain
3:23 PM 51.8 °F - 50.0 °F 94% 29.89 in 3.0 mi WNW 18.4 mph 27.6 mph 0.02 in Rain Light Rain
3:56 PM 46.9 °F - 46.0 °F 97% 29.87 in 3.0 mi NNW 6.9 mph - 0.06 in Rain Rain
4:56 PM 43.0 °F 35.7 °F 41.0 °F 93% 29.94 in 3.0 mi NW 15.0 mph 21.9 mph 0.10 in Rain Rain
5:21 PM 42.8 °F 35.1 °F 39.2 °F 87% 29.97 in 2.0 mi WNW 16.1 mph 21.9 mph 0.09 in Rain Heavy Rain
5:33 PM 41.0 °F 32.8 °F 39.2 °F 93% 29.96 in 4.0 mi WNW 16.1 mph 23.0 mph 0.14 in Rain Rain
5:56 PM 39.9 °F 33.4 °F 37.0 °F 89% 29.99 in 10.0 mi WNW 10.4 mph - 0.17 in Rain Light Rain
6:41 PM 39.2 °F 31.2 °F 37.4 °F 93% 30.02 in 4.0 mi NW 13.8 mph 20.7 mph 0.10 in Rain Rain
6:56 PM 37.9 °F 28.2 °F 35.1 °F 89% 30.04 in 7.0 mi WNW 18.4 mph - 0.12 in Rain Rain
7:02 PM 37.4 °F 26.6 °F 35.6 °F 93% 30.05 in 7.0 mi WNW 21.9 mph 26.5 mph 0.01 in Rain Rain
7:22 PM 37.4 °F 27.5 °F 33.8 °F 87% 30.07 in 10.0 mi NW 18.4 mph 31.1 mph 0.01 in Rain Light Rain
7:56 PM 37.0 °F 29.8 °F 33.1 °F 86% 30.08 in 10.0 mi NW 10.4 mph - 0.01 in   Overcast
8:56 PM 37.0 °F 28.5 °F 33.1 °F 86% 30.11 in 10.0 mi WNW 13.8 mph - N/A   Overcast
9:19 PM 37.4 °F 30.8 °F 33.8 °F 87% 30.13 in 10.0 mi WNW 9.2 mph - N/A   Overcast
9:52 PM 35.6 °F 27.5 °F 33.8 °F 93% 30.14 in 10.0 mi WNW 11.5 mph - N/A   Overcast
9:56 PM 36.0 °F 29.6 °F 33.1 °F 89% 30.15 in 10.0 mi WNW 8.1 mph - N/A   Overcast
10:56 PM 35.1 °F 27.9 °F 32.0 °F 89% 30.19 in 10.0 mi NNW 9.2 mph - N/A   Overcast
11:56 PM 33.1 °F 23.9 °F 28.9 °F 85% 30.22 in 10.0 mi North 12.7 mph - N/A   Overcast